Voltar ao catálogo

STARLINK-30820

AtivoComunicaçõesVLEO
NORAD 58190·PAYLOAD·🇺🇸 United States

Lançado Oct 30, 2023 de Cape Canaveral Space Force Station

Loading…

Próximas Passagens (próximas 24 horas)

TLE

AtualizadoSource: CelesTrak SupGP

Época: Sep 15, 2026, 02:29 UTC

1 58190C 23167R   26258.10395833  .00027396  00000+0  99245-3 0  2583
2 58190  42.9995 153.3371 0001016 273.9578 230.6543 15.27559930    15

Acompanhe STARLINK-30820 em tempo real com AllMySat

Download on the App Store